Location: *
(53.2833°S, 175.6667°E)
Time: 01:43:27
(UTC+00:00)

Daily predictions for brighter satellites

Satellite Brightness Start Highest point End
(mag) Time Altitude Azimuth Time Altitude Azimuth Time Altitude Azimuth
Spot 4 Rocket 4.1 04:47:24 10° SSE 04:52:40 77° ENE 04:57:52 10° NNW
CENTAUR R/B 3.4 04:46:16 10° WSW 04:52:42 35° SSW 04:58:10 10° SE
Cosmos 2056 Rocket 3.7 04:48:20 10° SSW 04:53:25 49° ESE 04:58:31 10° NE
Cosmos 1420 Rocket 4.4 04:49:17 10° SSW 04:54:19 43° SE 04:59:18 10° NE
Cosmos 1842 3.3 04:52:29 10° S 04:56:28 85° E 05:00:23 10° NNE
Landsat 4 4.2 04:56:41 10° SSE 05:00:20 42° E 05:03:54 10° N
Cosmos 1844 4.3 04:56:38 10° N 05:01:48 40° ENE 05:07:01 10° SE
Meteor 1-29 3.9 04:58:51 10° S 05:02:06 47° WSW 05:05:17 10° NW
YAOGAN 6 2.6 04:59:30 10° SSE 05:03:08 87° ENE 05:06:45 10° NNW
Meteor 1-4 Rocket 4.1 05:01:06 10° NE 05:03:34 18° E 05:06:02 10° SE
CZ-2D R/B 4.2 04:59:38 10° S 05:03:52 54° WSW 05:07:56 10° NW
Cosmos 389 Rocket 4.4 05:05:46 10° NW 05:08:44 27° WSW 05:11:45 10° S
Cosmos 2221 Rocket 4.2 05:05:23 10° S 05:09:33 35° ESE 05:13:41 10° NE
ATLAS CENTAUR R/B 1.5 05:10:26 10° WNW 05:13:56 51° SW 05:17:25 10° SE
Cosmos 2082 Rocket 3.2 05:09:15 10° SSW 05:14:01 26° SE 05:18:47 10° E
CZ-3B R/B 3.7 05:13:31 10° N 05:16:22 16° NNE 05:18:19 10° ENE
SL-14 R/B 4.4 05:15:57 10° SSE 05:19:08 23° ESE 05:22:16 10° ENE
Cosmos 1975 3.1 05:16:22 10° N 05:20:19 49° E 05:24:20 10° SSE
Cosmos 1538 Rocket 4.3 05:15:22 10° NNW 05:20:44 74° WSW 05:26:13 10° SSE
Cosmos 1869 Rocket 3.5 05:16:56 10° N 05:21:20 76° E 05:25:50 10° SSE
Cosmos 2227 Rocket 4.0 05:17:34 10° WSW 05:21:47 21° SSW 05:26:03 10° SSE
Okean 2 3.5 05:18:08 10° S 05:22:17 54° ESE 05:26:23 10° NNE
ISS -1.6 05:20:25 10° W 05:23:25 28° NNW 05:26:23 10° NNE
SJ-12 4.0 05:19:20 10° SSE 05:23:28 61° ENE 05:27:31 10° N
In-Cosmos 22 4.2 05:19:32 10° SSW 05:25:14 89° E 05:30:41 10° NNE
COSMO-SKYMED 1 2.7 05:21:18 10° NNE 05:25:43 82° WNW 05:30:11 10° SSW
ATLAS 3B R/B 2.9 05:19:07 10° NW 05:26:36 85° NE 05:33:22 12° SE
Cosmos 1726 4.3 05:28:08 10° E 05:28:08 10° E 05:28:08 10° E
CZ-2C R/B 3.1 05:26:29 10° S 05:30:18 65° WSW 05:34:00 10° NNW
Cosmos 2263 Rocket 3.3 05:25:01 10° WNW 05:30:23 39° SW 05:35:48 10° SSE
BREEZE-M DEB (TANK) 3.8 05:30:06 10° NNE 05:30:43 11° NE 05:31:24 10° NE
Cosmos 1733 Rocket 3.5 05:30:02 10° NNE 05:34:08 40° E 05:38:17 10° SSE
Cosmos 1092 Rocket 4.2 05:28:32 10° NNE 05:34:40 51° E 05:40:52 10° SSE
Cosmos 923 Rocket 4.0 05:29:29 10° NNW 05:34:43 74° ENE 05:39:59 10° SSE
Cosmos 2278 Rocket 3.8 05:32:12 10° NE 05:35:17 15° E 05:36:31 14° E
CZ-4C R/B 4.4 05:32:49 10° ENE 05:35:20 19° ESE 05:37:51 10° SSE
Meteor 1-31 Rocket 3.1 05:33:39 10° SSE 05:37:23 43° E 05:41:04 10° N
Cosmos 1818 3.7 05:32:43 10° NW 05:38:07 78° SW 05:42:54 14° SE
H-2A R/B 3.1 05:34:41 10° SE 05:39:03 25° E 05:43:28 10° NNE
SL-19 R/B 4.4 05:34:02 10° NE 05:39:31 54° ESE 05:45:02 10° SSW
Cosmos 1680 Rocket 3.6 05:35:28 10° N 05:40:41 65° ENE 05:45:58 10° SSE
CZ-4B R/B 4.5 05:40:23 17° ESE 05:42:04 20° E 05:45:29 10° NE
KORONAS-FOTON 3.9 05:38:47 10° SSW 05:42:44 86° W 05:46:40 10° N
PSLV R/B 4.3 05:39:28 10° S 05:43:48 56° WSW 05:48:07 10° NNW
CZ-4C R/B 3.3 05:36:43 10° NNW 05:44:28 46° NE 05:49:41 17° ESE
USA 215 3.6 05:38:55 15° ESE 05:44:28 57° NE 05:50:57 10° NW
Cosmos 1626 2.1 05:42:51 10° S 05:46:38 88° ESE 05:50:22 10° N
ADEOS 4.3 05:43:04 10° SSE 05:47:42 31° E 05:52:22 10° NNE
Cosmos 1844 Rocket 2.8 05:45:24 10° NNW 05:51:07 85° WSW 05:56:32 12° SSE
ATLAS CENTAUR R/B 0.1 05:49:35 10° WSW 05:51:40 55° SSE 05:51:49 52° SE
Cosmos 2297 Rocket 4.3 05:49:02 10° SW 05:52:19 15° SSW 05:55:35 10° SSE
Cosmos 2112 Rocket 4.0 05:48:24 10° NNW 05:53:38 71° ENE 05:58:30 13° SSE
Cosmos 1452 Rocket 3.6 05:49:11 10° SSW 05:54:27 54° ESE 05:59:40 10° NE
Cosmos 1378 Rocket 3.5 05:53:02 10° S 05:57:34 66° ESE 06:02:03 10° NNE
H-2A R/B 4.0 05:54:09 10° S 05:57:46 40° WSW 06:01:20 10° NW
Cosmos 1110 Rocket 4.4 05:53:39 10° SSW 05:58:37 41° SE 06:03:33 10° NE
FengYun 1-2 T 4.5 05:53:13 10° SSE 05:58:38 48° E 06:04:02 10° N
CZ-2C R/B 3.7 05:54:16 10° S 05:59:55 66° WSW 06:05:41 10° NNW
CZ-4B R/B 4.2 05:55:28 10° S 06:00:19 53° WSW 06:05:14 10° NW
Cosmos 1733 3.5 05:56:43 10° NNE 06:00:26 44° E 06:02:45 20° SSE
DMSP B5D1-3 4.5 05:56:27 10° NNE 06:01:38 85° ESE 06:06:52 10° SSW
Cosmos 1805 3.5 06:00:52 10° NNE 06:04:38 47° E 06:06:54 22° SSE
Cosmos 2195 Rocket 4.4 05:59:47 10° N 06:05:57 81° E 06:12:15 10° SSE
Cosmos 1674 3.6 06:02:53 10° SSW 06:06:40 51° W 06:10:24 10° N
Cosmos 1674 Rocket 3.5 06:05:19 10° S 06:09:46 87° E 06:14:09 10° N
SMAP 3.6 06:08:31 24° SE 06:10:41 36° E 06:15:02 10° NNE
ATLAS 5 CENTAUR R/B 2.3 06:04:44 10° SW 06:10:50 74° NW 06:15:46 10° NE
CZ-4B R/B 3.7 06:08:43 11° SSE 06:12:19 81° WSW 06:16:00 10° NNW
COSMOS 2406 3.3 06:07:26 10° SSW 06:13:12 60° SE 06:18:56 10° NE
Cosmos 44 4.3 06:11:52 10° SW 06:16:48 35° SSE 06:18:25 29° ESE
Cosmos 1461 3.9 06:12:40 10° WNW 06:17:08 45° SW 06:19:45 22° SSE
H-2A R/B 3.9 06:24:03 17° SSE 06:24:03 17° SSE 06:25:22 10° S
USA 267 4.2 06:15:50 10° NNE 06:22:10 48° NW 06:28:34 10° WSW
Cosmos 1833 Rocket 2.7 06:16:28 10° SSW 06:22:12 84° WNW 06:27:52 10° NNE
NOAA 12 4.0 06:21:38 10° SSE 06:26:59 83° ENE 06:32:18 10° NNW
Cosmos 1908 Rocket 3.7 06:23:54 10° N 06:28:15 51° E 06:29:43 36° SE
Iridium 2 4.2 06:24:59 10° NNE 06:27:51 39° ENE 06:27:51 39° ENE
NOSS 3-2 (A) 4.2 06:26:04 10° SW 06:32:57 40° SSE 06:35:13 31° SE
Cosmos 2315 Rocket 4.3 06:28:38 10° S 06:34:47 43° ESE 06:40:52 10° NE
Cosmos 1939 Rocket 3.2 06:32:12 14° S 06:35:45 67° WSW 06:39:53 10° NNW
Cosmos 1553 Rocket 4.0 06:29:42 10° S 06:35:59 88° W 06:42:17 10° N
Meteor 1-4 Rocket 3.7 06:34:42 10° NW 06:38:05 42° WSW 06:40:27 17° S
Landsat 5 3.9 06:36:56 10° N 06:40:44 56° WNW 06:44:38 10° SSW
Cosmos 909 Rocket 4.0 06:36:40 10° NNW 06:42:56 63° NE 06:45:26 37° ESE
ARGOS 3.4 06:43:53 43° E 06:44:27 45° E 06:49:38 10° N
CENTAUR R/B 3.0 06:38:49 10° SW 06:44:48 37° SSE 06:45:55 34° SE
NOAA 6 4.2 06:44:26 44° ESE 06:45:27 51° E 06:50:31 10° N
Cosmos 1844 4.5 06:40:29 10° WNW 06:45:54 48° SW 06:49:39 20° SSE
Meteor PRIRODA 3.5 06:46:17 81° E 06:46:20 81° ENE 06:50:03 10° NNW
Cosmos 2026 Rocket 4.4 06:42:24 10° NNW 06:48:35 64° WSW 06:54:45 10° S
SeaSat 1 4.4 06:51:43 15° NNE 06:51:43 15° NNE 06:52:54 10° NNE
USA 229 DEB 4.1 06:43:04 10° NNW 06:50:35 54° NE 06:53:01 39° ESE
USA 229 4.1 06:43:09 10° NNW 06:50:39 53° NE 06:53:03 39° ESE
Meteor 2-5 Rocket 3.6 06:45:09 10° S 06:51:00 72° ESE 06:56:40 10° NNE
ATLAS CENTAUR R/B 3.2 06:50:55 10° WSW 06:53:21 17° SSW 06:53:26 17° SSW
Magion 5 Rocket2 4.1 06:47:58 10° NW 06:54:07 72° NE 06:56:13 40° ESE
S3M 4.0 06:49:06 10° S 06:55:38 85° E 07:02:01 10° N
Cosmos 494 Rocket 4.0 06:53:41 10° N 06:58:53 59° ENE 06:59:03 58° E
Cosmos 2082 Rocket 2.1 06:53:10 10° SSW 06:58:57 85° ESE 07:01:50 31° NE
NOSS 3-1 (C) 4.1 06:52:13 10° NW 07:01:03 85° SW 07:04:44 36° SE
Meteor 1-12 Rocket 4.2 06:55:31 10° N 07:01:25 84° ENE 07:06:14 17° SSE
CZ-2D R/B 3.4 07:02:33 69° NNW 07:02:33 69° NNW 07:06:03 10° NNW
Meteor 1-24 Rocket 3.5 06:56:41 10° SSW 07:02:21 76° ESE 07:07:30 11° NNE
Meteor 2-10 4.3 06:57:06 10° NNW 07:02:51 81° WSW 07:07:53 15° SSE
Cosmos 1726 3.0 06:59:59 10° NNW 07:02:27 41° NNW 07:02:27 41° NNW
Cosmos 1655 Rocket 4.0 06:58:19 10° N 07:04:39 61° E 07:08:30 25° SSE
CZ-4C R/B 3.9 07:03:59 10° N 07:07:23 47° W 07:10:48 10° SSW
Cosmos 2227 Rocket 4.3 07:05:35 10° SSW 07:08:13 13° S 07:09:12 13° S
Cosmos 1331 Rocket 4.2 07:06:50 10° SSW 07:12:07 71° WNW 07:15:39 21° NNE
Cosmos 1975 Rocket 3.4 07:08:11 10° SSW 07:11:54 59° SSW 07:11:54 59° SSW
Cosmos 883 Rocket 4.4 07:06:23 10° S 07:12:50 80° ESE 07:19:15 10° NNE
Cosmos 2263 Rocket 4.3 07:12:25 10° WSW 07:16:00 17° SSW 07:18:18 13° S
ARGOS Delta rocket 4.4 07:17:40 48° S 07:17:40 48° S 07:21:16 10° S
CZ-4B R/B 3.5 07:16:23 49° SSW 07:17:27 65° WSW 07:21:58 10° NNW
ATLAS 3B R/B 3.5 07:11:00 10° W 07:17:59 44° SSW 07:20:37 32° SSE
Cosmos 2278 Rocket 2.1 07:12:42 10° NNW 07:18:22 73° ENE 07:18:24 73° ENE
NOSS 3-1 (A) 4.0 07:09:59 10° NW 07:18:50 83° NE 07:21:27 48° SE
H-2A R/B 2.5 07:15:17 20° S 07:18:52 63° WSW 07:24:09 10° NNW
NOSS 3-2 (C) 4.1 07:14:41 10° SW 07:21:36 42° SSE 07:22:00 41° SSE
Cosmos 1766 4.3 07:18:16 10° NNW 07:21:24 45° WNW 07:21:24 45° WNW
ADEOS 4.3 07:23:51 19° S 07:27:27 51° WSW 07:32:32 10° NW
USA 215 3.2 07:26:16 58° SE 07:27:42 78° SSW 07:34:19 10° WNW
CZ-4C R/B 2.9 07:25:06 10° WNW 07:33:04 68° SW 07:34:52 50° SSE
CORIOLIS 4.5 07:31:30 34° S 07:33:50 64° WSW 07:39:12 10° NNW
Cosmos 1844 Rocket 4.5 07:31:07 10° W 07:35:51 26° SW 07:38:12 20° S
Cosmos 1048 Rocket 4.2 07:31:15 10° NNW 07:36:36 74° WSW 07:36:36 74° WSW
Cosmos 2266 Rocket 4.0 07:30:53 10° NNW 07:37:16 83° W 07:41:54 21° S
USA 238 DEB 4.1 07:31:28 10° SW 07:38:13 46° SSE 07:38:13 46° SSE
USA 238 4.2 07:31:36 10° SW 07:38:21 46° SSE 07:38:21 46° SSE
Cosmos 2297 Rocket 4.3 07:35:51 10° SSW 07:38:01 14° S 07:38:01 14° S
Cosmos 1302 Rocket 4.4 07:38:27 10° SSW 07:42:52 59° SW 07:42:52 59° SW
BREEZE-M DEB (TANK) 4.0 07:28:11 10° W 07:47:22 67° NNW 07:48:13 62° NNE
SMAP 4.4 07:46:58 33° SSW 07:48:03 38° WSW 07:52:24 10° NW
Cosmos 44 4.4 07:53:10 10° SW 07:56:51 44° SW 07:56:51 44° SW
NOSS 3-2 (A) 4.3 08:17:48 10° SW 08:22:36 46° SW 08:22:36 46° SW
CENTAUR R/B 3.8 08:30:03 10° SW 08:33:06 30° SW 08:33:06 30° SW
USA 229 DEB 4.4 08:34:01 10° WNW 08:40:28 55° WSW 08:40:28 55° WSW
USA 229 4.4 08:34:05 10° WNW 08:40:30 55° WSW 08:40:30 55° WSW
Cosmos 2082 Rocket 4.3 08:38:10 10° SW 08:42:23 21° W 08:43:47 19° WNW
Cosmos 2278 Rocket 4.4 08:57:57 10° WNW 09:00:17 21° W 09:00:17 21° W
ATLAS 3B R/B 4.3 09:03:47 10° WSW 09:07:52 28° SSW 09:07:52 28° SSW
CZ-4C R/B 4.3 09:15:54 10° W 09:20:02 28° SW 09:20:02 28° SW
